This is the latest recevied weather packets stored in our database for station/object RV1CJ-14. If no packets are shown the sender has not sent any weather packets the latest 10 day(s).
| Time | Temp. | Humidity | Pressure | Rain* | Wind** | Luminosity | Snow |
|---|---|---|---|---|---|---|---|
| 1777837203 | 10° C | 78% | 1005.1 hPa | 0 mm | - | 0 W/m² | - |
| 1777836603 | 10° C | 77% | 1005.1 hPa | 0 mm | - | 0 W/m² | - |
| 1777836003 | 10.56° C | 77% | 1005.1 hPa | 0 mm | - | 0 W/m² | - |
| 1777835403 | 10.56° C | 76% | 1005.1 hPa | 0 mm | - | 0 W/m² | - |
| 1777834804 | 10.56° C | 76% | 1005.1 hPa | 0 mm | - | 0 W/m² | - |
| 1777834203 | 11.11° C | 76% | 1004.8 hPa | 0 mm | - | 0 W/m² | - |
| 1777833603 | 11.11° C | 76% | 1004.8 hPa | 0 mm | - | 0 W/m² | - |
| 1777833003 | 11.11° C | 75% | 1004.8 hPa | 0 mm | - | 0 W/m² | - |
| 1777832403 | 11.67° C | 75% | 1005 hPa | 0 mm | - | 0 W/m² | - |
| 1777831803 | 11.67° C | 74% | 1005 hPa | 0 mm | - | 0 W/m² | - |
| 1777831203 | 11.67° C | 74% | 1004.9 hPa | 0 mm | - | 0 W/m² | - |
| 1777830603 | 12.22° C | 74% | 1004.8 hPa | 0 mm | - | 0 W/m² | - |
| 1777830003 | 12.22° C | 73% | 1004.7 hPa | 0 mm | - | 5 W/m² | - |
| 1777829403 | 12.22° C | 73% | 1004.7 hPa | 0 mm | - | 7 W/m² | - |
| 1777828803 | 12.22° C | 73% | 1004.6 hPa | 0 mm | - | 9 W/m² | - |
| 1777828203 | 12.22° C | 72% | 1004.6 hPa | 0 mm | - | 9 W/m² | - |
| 1777827603 | 12.22° C | 71% | 1004.6 hPa | 0 mm | - | 9 W/m² | - |
| 1777827003 | 12.78° C | 71% | 1004.6 hPa | 0 mm | - | 12 W/m² | - |
| 1777826403 | 12.78° C | 71% | 1004.5 hPa | 0 mm | - | 16 W/m² | - |
| 1777825803 | 12.78° C | 72% | 1004.5 hPa | 0 mm | - | 28 W/m² | - |
| 1777825203 | 12.22° C | 72% | 1004.5 hPa | 0 mm | - | 23 W/m² | - |
| 1777824603 | 12.78° C | 72% | 1004.5 hPa | 0 mm | - | 19 W/m² | - |
| 1777824003 | 12.78° C | 71% | 1004.6 hPa | 0 mm | - | 19 W/m² | - |
| 1777823403 | 12.78° C | 71% | 1004.6 hPa | 0 mm | - | 21 W/m² | - |
| 1777822803 | 12.78° C | 71% | 1004.7 hPa | 0 mm | - | 25 W/m² | - |
* Rain latest hour (hover to see other rain measurements)
** Current wind speed in m/s (hover to see current wind gust speed)